Location: Pasadena, ca
(34.1243°N, 118.1037°W)
Time: 13:38:08
(UTC-08:00)

Tiangong 1 - Pass Details

Date: 15 November 2017
Orbit: 285 x 309 km, 42.8° (Epoch: 18 November)

Event Time Altitude Azimuth Distance (km) Brightness Sun altitude
Exits shadow 05:13:45 17° 209° (SSW) 844 2.6 -15.0°
Drops below altitude 10° 05:15:14 10° 173° (S) 1,131 3.7 -14.7°
Sets 05:17:33 0° 151° (SSE) 1,952 5.3 -14.2°
